Date,TemperatureHighF,TemperatureAvgF,TemperatureLowF,DewpointHighF,DewpointAvgF,DewpointLowF,HumidityHigh,HumidityAvg,HumidityLow,PressureMaxIn,PressureMinIn,WindSpeedMaxMPH,WindSpeedAvgMPH,GustSpeedMaxMPH,PrecipitationSumIn
2013-2-1,1,0,-2,-13,-14,-17,52,49,47,0.00,40.00,7,5,11,0.00
2013-2-2,14,11,9,0,-2,-4,62,54,50,0.00,40.00,6,3,9,0.00
2013-2-3,16,14,12,3,2,0,69,59,52,0.00,40.00,3,1,9,0.00
2013-2-4,18,15,12,1,-1,-4,49,47,44,0.00,40.00,5,2,9,0.00
2013-2-5,31,28,22,23,17,10,79,63,52,0.00,40.00,8,4,16,0.00
2013-2-6,27,25,22,21,19,18,83,78,74,0.00,40.00,7,4,12,0.00
2013-2-8,28,26,23,16,14,12,65,61,56,0.00,40.00,9,6,14,0.00
2013-2-11,28,24,20,19,16,12,74,71,65,0.00,40.00,6,2,17,0.00
2013-2-12,36,32,27,21,19,18,71,59,50,0.00,40.00,8,5,16,0.00
2013-2-13,40,37,33,32,27,23,98,68,52,0.00,40.00,9,3,13,0.00
2013-2-14,31,28,22,30,18,5,97,66,45,0.00,40.00,6,3,17,0.00
2013-2-15,20,17,14,5,1,-2,60,49,43,0.00,40.00,8,4,15,0.00
2013-2-16,24,19,11,9,5,3,88,55,46,0.00,40.00,4,2,7,0.00
2013-2-17,33,30,27,23,20,16,76,66,56,0.00,40.00,14,10,22,0.00
2013-2-18,34,29,19,32,24,12,93,81,69,0.00,40.00,11,3,17,0.00
2013-2-19,11,8,5,-4,-6,-8,54,51,49,0.00,40.00,5,3,15,0.00
2013-2-20,20,16,10,1,0,-2,60,48,43,0.00,40.00,6,4,9,0.00
2013-2-21,25,23,21,9,8,7,56,51,48,0.00,40.00,9,5,16,0.00
2013-2-23,36,31,25,25,21,19,79,66,55,0.00,40.00,4,3,10,0.00
2013-2-24,38,33,27,19,19,18,74,55,47,0.00,40.00,7,3,9,0.00
2013-2-25,41,35,25,23,20,19,82,57,44,0.00,40.00,4,1,9,0.00
2013-2-26,37,34,30,27,26,23,77,72,64,0.00,40.00,10,7,19,0.00
2013-2-27,42,36,29,27,24,23,79,62,47,0.00,40.00,14,8,26,0.00